Theta_e
314 316 316 317 315 314 313 313 313 316 316 317 317 316 314 316 317 318 320 320 319 319 319 319 319 319 318 319 323 329 329 329 328 328 327 324 319 318 318 319 322 324 324 327
313 313 313 314 316 316 315 314 313 316 315 314 313 312 311 311 312 314 316 317 318 318 319 319 318 318 317 317 318 318 318 319 319 319 322 322 320 321 322 322 322 321 325 327
314 312 313 312 313 316 315 314 313 313 314 314 313 311 311 311 312 312 313 314 314 314 314 314 314 313 313 313 317 318 318 319 319 319 319 322 324 324 323 322 323 322 324 325
310 310 311 312 313 316 316 314 314 314 312 311 310 308 308 308 308 309 312 313 313 313 314 313 312 313 312 312 313 314 315 315 316 318 318 319 320 320 320 323 324 324 322 325
312 310 310 313 312 314 314 312 313 313 312 311 309 308 307 307 308 306 309 311 311 312 312 312 312 312 312 312 312 313 313 313 315 315 317 319 321 320 321 322 322 325 325 327
311 312 310 311 310 311 311 312 313 312 310 305 308 305 303 307 308 311 311 312 312 312 312 312 313 313 311 311 311 311 311 311 313 315 316 318 319 319 320 323 325 327 327 325
312 312 312 312 312 312 312 312 312 311 307 302 307 307 304 307 309 309 311 312 312 312 312 312 312 313 312 312 312 312 312 311 312 312 313 313 314 315 316 319 324 325 325 323
310 312 312 312 312 312 312 311 311 303 312 311 309 309 308 308 310 311 311 311 310 311 312 312 312 312 312 312 312 313 314 315 314 313 314 314 313 314 317 321 323 324 323 322
310 310 311 311 311 311 313 313 311 310 302 306 306 308 308 308 309 310 310 311 311 312 312 312 312 312 312 312 312 313 313 313 313 315 316 316 317 317 317 318 318 318 315 311
309 310 310 311 311 311 312 311 313 309 308 309 307 306 305 309 309 308 308 310 310 311 311 311 311 311 311 312 312 312 312 312 311 311 311 311 311 311 310 309 309 308 308 308
308 309 309 310 312 312 312 313 312 311 310 312 310 306 305 306 307 307 308 310 310 310 310 310 310 310 309 309 311 312 311 310 310 309 308 308 308 308 308 308 308 308 308 308
308 310 309 311 308 310 311 312 311 311 311 308 310 308 308 306 308 309 310 310 310 310 310 310 309 309 308 309 309 309 312 310 309 309 308 308 309 309 309 309 308 308 308 307
308 310 310 310 308 308 310 311 311 310 308 309 309 308 307 307 307 310 310 310 311 311 309 309 308 308 308 308 309 309 309 310 309 308 308 309 308 309 309 308 308 308 308 308
308 308 307 309 308 308 310 311 311 312 311 310 310 309 308 308 307 307 308 309 309 309 309 309 307 307 307 308 308 308 309 309 309 308 308 308 308 309 309 309 308 308 307 307
309 307 308 308 309 310 308 309 311 311 311 311 310 309 308 306 306 307 309 309 309 309 309 309 308 306 305 306 307 308 308 309 310 308 309 309 309 309 309 309 308 308 307 306
309 308 307 303 308 309 309 308 310 311 311 310 310 309 308 309 309 309 310 309 309 309 309 309 307 307 307 307 308 308 308 308 309 309 308 308 309 309 309 309 308 307 307 306
308 307 305 306 307 305 307 306 307 309 310 310 310 310 308 307 307 309 309 309 309 309 309 308 307 306 306 306 307 307 308 308 309 309 309 307 307 308 308 308 307 307 306 305
305 307 307 302 299 308 304 305 306 307 307 307 309 307 307 308 309 308 308 308 307 307 307 306 306 306 306 307 306 306 306 307 309 309 308 307 306 306 307 306 306 305 304 303
304 306 307 308 305 303 303 303 305 306 307 306 304 305 306 306 307 306 307 307 306 305 306 306 307 306 306 305 305 305 306 306 307 308 308 308 307 305 305 305 304 303 302 298
305 307 307 307 308 307 304 303 304 303 305 303 305 305 305 304 302 302 305 305 306 306 306 306 305 305 305 305 305 305 305 305 306 307 307 306 305 303 303 303 302 301 298 295
307 307 308 307 307 298 301 303 303 303 303 304 304 304 303 301 303 304 305 305 304 304 303 303 302 302 301 302 303 304 304 304 305 305 305 304 303 303 302 300 298 295 294 294
306 307 308 307 306 306 302 302 303 303 304 304 305 305 305 305 305 305 304 302 302 301 301 300 300 300 301 302 303 304 303 303 302 302 301 301 300 299 299 297 295 293 293 292
304 304 303 305 304 302 304 303 305 304 304 304 305 305 305 305 304 303 302 302 301 300 299 299 299 299 299 302 303 303 301 301 301 300 299 298 298 297 296 294 292 292 291 291
301 302 303 303 304 302 304 304 305 305 305 305 304 304 304 304 303 303 301 299 298 298 298 299 299 300 300 301 302 301 301 300 298 298 298 297 295 293 291 291 291 291 290 290
300 300 300 300 299 301 303 302 303 302 302 302 301 301 301 301 302 301 300 299 297 297 298 299 300 300 300 301 300 299 299 299 297 295 294 294 292 290 290 289 289 289 289 288
298 298 300 300 300 301 302 302 301 300 300 300 299 300 300 301 300 300 300 298 297 298 299 299 300 300 300 299 298 297 296 296 296 293 291 290 289 288 288 288 287 286 287 286
Wind_Speed
4 4 7 11 8 3 5 1 5 2 2 2 4 6 9 21 16 15 14 16 19 23 19 14 14 15 17 22 25 25 22 22 22 25 26 27 29 26 23 21 19 20 23 26
4 3 5 6 6 5 1 1 1 2 4 2 3 8 12 13 15 25 29 29 28 26 29 27 24 24 24 24 27 29 29 30 31 29 28 29 27 26 24 22 20 19 18 21
5 2 8 4 5 9 5 5 2 1 0 2 4 7 7 5 21 27 35 33 30 30 30 28 22 19 20 22 23 25 25 25 26 27 28 28 27 26 25 25 22 19 18 17
2 5 1 5 2 4 5 3 4 5 3 3 3 5 6 7 7 7 23 24 26 28 25 23 19 20 24 27 25 28 30 30 28 26 27 28 28 27 25 24 22 21 20 17
4 3 4 3 3 3 2 5 5 4 3 3 3 1 7 6 7 8 6 10 9 9 11 11 12 16 21 24 25 27 27 25 26 25 26 24 26 26 22 21 18 16 16 14
2 2 3 5 2 3 7 6 7 4 3 1 9 7 5 4 5 3 4 8 7 4 2 5 6 10 14 17 16 19 22 24 24 25 25 27 26 25 22 19 15 14 15 16
2 1 2 1 4 3 5 5 2 2 1 5 3 4 7 6 4 7 10 8 5 2 3 3 3 3 3 3 5 6 8 12 14 16 19 26 29 27 25 21 21 20 21 19
5 2 7 5 5 5 5 5 4 7 4 3 3 6 5 3 4 13 12 8 2 1 4 3 2 3 4 3 3 2 2 4 6 9 11 14 16 19 20 19 21 22 19 17
5 4 5 4 3 6 5 6 2 4 2 3 4 6 9 6 4 7 7 6 7 5 4 3 1 1 3 3 3 4 3 2 2 4 7 9 11 13 14 14 15 14 12 12
3 3 3 1 3 2 4 6 1 1 2 4 4 4 5 2 7 6 7 9 8 5 4 3 3 4 5 6 6 6 6 6 6 6 6 7 7 7 7 7 7 8 7 6
3 4 1 5 7 12 4 3 4 4 4 3 1 5 5 7 7 9 9 6 7 8 8 7 8 7 8 8 7 8 9 9 9 8 7 6 5 5 4 5 4 3 3 4
6 4 4 6 2 4 4 4 6 4 4 4 2 5 3 8 10 16 10 9 8 4 5 7 9 10 10 10 10 9 10 11 11 10 8 8 8 7 5 4 3 3 4 6
7 4 4 2 3 0 6 10 8 3 3 4 4 4 0 6 10 14 14 9 6 4 2 3 9 12 15 15 15 15 13 14 13 13 12 12 9 6 3 3 5 6 8 10
16 5 6 8 4 5 7 11 16 13 3 5 8 3 5 7 7 9 5 3 1 5 9 10 10 13 17 18 19 19 17 16 17 16 16 15 12 8 7 7 9 10 11 13
7 6 3 5 2 1 2 8 14 15 22 10 18 12 10 8 6 9 10 11 10 16 17 17 19 22 23 22 21 20 20 19 19 21 19 18 15 12 11 11 12 13 14 14
5 3 4 3 7 8 6 6 13 21 22 16 12 10 4 10 16 21 25 19 19 18 20 21 21 24 26 27 26 24 22 21 21 23 26 25 22 20 16 15 16 16 16 16
3 5 3 5 4 4 3 17 11 11 17 14 17 19 4 7 14 23 23 22 20 20 19 21 29 30 28 26 25 25 22 21 22 22 25 28 27 25 22 20 19 19 17 19
3 5 4 3 3 7 9 8 17 16 12 13 13 8 12 18 24 19 17 23 29 28 27 26 21 22 21 21 21 23 25 22 23 22 24 27 29 28 26 22 20 21 21 20
17 9 2 3 6 3 5 8 13 11 21 12 12 19 20 20 18 22 27 21 21 22 18 16 15 16 17 21 23 24 24 24 23 25 25 26 28 28 26 24 22 23 22 20
13 11 7 2 5 9 16 5 14 6 7 15 19 17 15 10 4 7 15 12 8 5 8 11 15 19 20 22 23 23 22 23 23 25 27 27 27 27 26 25 25 24 21 18
7 8 15 12 8 6 10 4 16 8 10 3 17 24 17 6 15 17 11 9 10 10 11 13 15 18 22 24 26 26 24 23 24 26 27 27 27 27 26 24 22 20 18 16
5 5 7 9 5 7 8 6 10 13 11 6 6 9 11 11 7 12 11 9 9 12 15 18 21 22 23 26 27 26 25 23 24 25 24 24 24 23 21 20 18 17 15 12
4 7 4 6 5 5 21 7 11 15 12 7 8 11 13 13 13 13 13 13 13 17 20 21 23 24 25 26 28 27 22 21 21 20 20 20 20 19 18 17 16 14 13 11
5 6 5 3 10 5 2 4 3 2 7 9 8 9 13 16 18 18 15 14 18 20 21 22 24 25 26 27 27 24 21 18 18 19 17 17 17 17 17 16 15 14 12 10
7 8 6 4 4 1 11 11 12 15 16 15 14 17 21 22 25 23 20 20 23 22 22 21 23 25 27 28 25 22 20 19 18 17 16 16 17 17 16 15 14 12 10 9
8 6 6 5 6 10 18 21 16 15 11 10 15 19 20 22 26 21 26 27 25 22 22 21 21 23 24 25 24 21 19 18 17 17 17 17 16 16 15 13 10 7 3 5
Wind_Direction
192 136 191 199 182 112 121 150 217 80 335 120 227 259 266 281 275 259 247 252 251 244 238 240 233 239 246 243 241 240 240 244 249 254 256 263 268 270 265 263 262 262 261 261
75 238 225 204 216 232 230 23 301 96 162 145 249 269 267 251 251 249 248 244 247 253 257 260 266 266 261 258 257 252 249 251 253 252 253 259 265 268 269 266 264 268 263 261
145 196 205 243 174 204 185 176 235 44 54 322 24 297 274 285 240 247 252 256 260 263 264 264 259 260 261 255 243 238 240 243 249 251 255 255 256 257 258 262 265 268 275 270
212 275 114 127 166 141 178 222 208 112 90 237 124 284 304 278 267 229 249 248 251 254 262 270 261 247 256 253 247 245 247 254 251 246 250 251 253 257 266 264 268 271 269 266
219 179 146 129 188 125 161 66 136 107 105 27 285 214 267 281 267 261 262 243 238 227 230 245 255 251 251 253 253 252 253 253 250 248 244 243 246 257 261 258 256 251 258 262
118 338 148 178 185 173 146 86 52 52 88 317 221 180 265 228 225 130 108 136 141 159 269 276 284 266 257 257 256 256 255 250 244 242 240 238 239 245 251 253 249 234 245 249
116 239 47 128 102 32 115 115 48 358 320 228 297 186 244 243 189 165 156 137 136 142 274 279 298 315 307 277 275 265 252 245 240 240 237 237 239 243 245 241 236 237 247 251
151 220 172 192 187 163 178 160 160 201 202 242 317 231 249 268 131 143 138 135 157 197 204 241 284 356 356 347 336 301 261 239 240 237 229 227 230 233 239 239 239 248 254 254
151 245 129 161 139 132 169 215 176 108 24 59 233 282 307 189 109 115 115 113 107 132 176 167 192 349 2 352 331 325 317 290 230 205 209 220 225 228 233 236 239 239 235 239
155 117 179 112 155 266 162 154 143 355 175 241 264 257 235 161 169 128 105 93 98 116 141 91 45 35 18 352 331 319 304 283 264 245 224 213 211 211 213 214 218 222 225 237
183 111 199 131 205 188 164 190 200 151 173 196 248 261 233 209 165 144 147 104 100 87 77 57 36 29 9 356 341 314 297 280 265 252 239 221 203 193 192 202 216 234 262 282
186 105 168 192 311 169 228 192 190 154 229 222 146 274 284 137 160 152 165 138 129 98 53 18 2 348 351 331 318 306 287 280 267 251 227 201 193 196 201 214 244 271 288 298
174 160 137 150 341 318 207 209 213 175 88 218 152 252 193 152 143 154 162 180 178 165 148 360 344 329 334 333 326 313 290 269 255 245 229 217 203 195 218 257 278 284 288 292
175 170 186 195 171 150 196 205 212 205 190 192 222 193 193 203 188 199 185 142 338 310 297 307 325 326 318 316 314 312 302 278 256 246 234 223 216 218 230 252 267 278 282 285
186 199 203 211 59 253 217 207 205 209 224 190 234 212 231 208 217 229 282 294 308 304 295 305 315 311 315 308 306 309 306 290 265 247 238 236 239 242 248 258 263 269 274 284
189 231 159 268 230 199 241 246 210 218 231 230 240 249 203 267 286 291 291 300 304 295 290 297 294 302 303 304 300 303 297 295 282 257 247 247 249 250 252 260 264 270 281 289
239 165 135 235 200 132 231 221 214 223 230 219 235 241 200 237 242 253 270 275 270 271 277 283 294 297 291 293 295 295 296 292 285 275 258 253 252 252 253 257 261 266 269 271
243 250 173 220 83 227 236 186 205 214 227 217 240 240 219 233 247 257 257 267 277 278 282 287 292 293 289 291 295 295 291 287 277 278 272 261 256 255 255 258 261 262 262 263
210 227 225 239 211 292 305 219 191 194 240 226 229 249 251 257 264 262 262 266 274 281 284 283 284 291 297 297 294 293 291 286 278 268 265 266 263 260 258 257 259 259 259 257
198 210 196 187 238 203 238 184 197 104 273 232 217 245 244 230 197 255 273 254 217 225 253 270 283 285 294 301 299 295 288 279 272 267 263 261 259 255 253 255 257 254 251 250
197 201 213 218 240 264 250 227 149 140 236 250 236 245 245 189 243 271 217 223 247 263 278 288 294 299 305 303 299 296 287 277 266 258 257 256 255 253 254 257 255 252 250 249
217 184 205 204 212 247 160 133 164 215 207 244 200 244 252 249 222 209 228 252 271 285 293 298 300 301 302 298 292 289 283 275 264 260 258 256 254 253 251 247 243 243 245 246
222 185 186 186 219 224 172 201 234 241 240 231 216 233 246 243 238 242 255 268 279 291 294 294 294 294 294 292 288 283 280 272 265 259 257 254 250 245 240 235 233 232 232 234
255 177 194 124 240 180 211 187 186 232 258 258 247 248 241 253 266 270 269 282 300 300 298 297 294 291 289 289 285 276 269 260 257 256 250 244 238 233 228 225 220 217 223 237
199 162 181 253 258 209 256 247 250 257 257 255 265 272 270 268 265 272 264 291 306 297 291 286 290 291 286 282 275 267 259 256 249 246 238 230 226 223 221 217 215 212 219 233
181 184 190 222 208 220 253 260 263 257 257 271 285 279 275 269 273 269 279 295 297 288 282 284 287 283 278 274 268 260 254 248 238 229 225 220 217 214 210 207 209 198 237 293